User: anonymous   Login
Location: Clanezzo
(45.7500°N, 9.6000°E)
Time: 20:50:31
(UTC+00:00)
Language:

Transit 2A - Orbit

View from above orbital plane
View from above orbital plane
View from above satellite
View from above satellite

Ground track
Ground track

The orbit data is extracted from the following two-line orbital elements,

1    45U 60007A   22144.18781414  .00000668  00000-0  19403-3 0  9999
2    45  66.6946 320.9307 0252802 163.5459 197.4043 14.33841581223872
Epoch (UTC): 24 May 2022 04:30:27
Eccentricity: 0.0252802
inclination: 66.6946°
perigee height: 598 km
apogee height: 960 km
right ascension of ascending node: 320.9307°
argument of perigee: 163.5459°
revolutions per day: 14.33841581
mean anomaly at epoch: 197.4043°
orbit number at epoch: 22387

The dashed part of the orbit path shows where the satellite is in the earth's shadow,  

DLR